PVL927 CYXU-CYXU

Flight info

Callsign PVL927
Flight time 0h 9m
Altitude 16000
Route SYR V483 DINES/N0321F240 DCT COLTS DCT ITPEG
Aircraft DH8D/M-SDE2E3FGRY/H

Departure

Time 2026-04-25 22:57
Airport London International Airport (CYXU)

Arrival

Time 2026-04-25 23:07
Airport London International Airport (CYXU)
Time Latitude Longitude Altitude Speed Heading
2026-04-25 22:57 43.07570 -81.21524 2995 ft 237 kts 281°
2026-04-25 22:57 43.07212 -81.23780 3019 ft 251 kts 242°
2026-04-25 22:58 43.05915 -81.25367 3025 ft 255 kts 203°
2026-04-25 22:58 43.04188 -81.25642 3028 ft 250 kts 166°
2026-04-25 22:58 43.02518 -81.25042 3026 ft 251 kts 163°
2026-04-25 22:58 43.00815 -81.24598 3017 ft 245 kts 166°
2026-04-25 22:59 42.99155 -81.24168 3018 ft 242 kts 165°
2026-04-25 22:59 42.97550 -81.23756 3009 ft 230 kts 165°
2026-04-25 22:59 42.95985 -81.23370 3019 ft 233 kts 165°
2026-04-25 22:59 42.94360 -81.22794 3034 ft 250 kts 155°
2026-04-25 23:00 42.92717 -81.21842 3036 ft 261 kts 152°
2026-04-25 23:00 42.91064 -81.20873 3020 ft 254 kts 152°
2026-04-25 23:00 42.89462 -81.19933 3016 ft 249 kts 152°
2026-04-25 23:00 42.87885 -81.19012 3011 ft 244 kts 152°
2026-04-25 23:01 42.86444 -81.17863 2999 ft 232 kts 132°
2026-04-25 23:01 42.85642 -81.16079 3007 ft 219 kts 102°
2026-04-25 23:01 42.85573 -81.14055 3024 ft 212 kts 82°
2026-04-25 23:01 42.85715 -81.12068 3017 ft 211 kts 81°
2026-04-25 23:02 42.85853 -81.10090 3015 ft 211 kts 81°
2026-04-25 23:02 42.85983 -81.08228 2994 ft 186 kts 81°
2026-04-25 23:02 42.86255 -81.06557 3003 ft 182 kts 64°
2026-04-25 23:02 42.86903 -81.05014 3016 ft 194 kts 57°
2026-04-25 23:03 42.87624 -81.03475 3001 ft 187 kts 56°
2026-04-25 23:03 42.88343 -81.01984 3004 ft 187 kts 55°
2026-04-25 23:03 42.89103 -81.00568 2995 ft 187 kts 44°
2026-04-25 23:03 42.90299 -80.99960 2996 ft 191 kts
2026-04-25 23:04 42.91519 -81.00730 3012 ft 202 kts 329°
2026-04-25 23:04 42.92254 -81.01554 2970 ft 205 kts 325°
2026-04-25 23:04 42.93670 -81.03245 2971 ft 203 kts 324°
2026-04-25 23:04 42.94743 -81.04546 2794 ft 208 kts 324°
2026-04-25 23:05 42.95853 -81.05869 2562 ft 214 kts 324°
2026-04-25 23:05 42.96977 -81.07210 2189 ft 207 kts 323°
2026-04-25 23:05 42.97952 -81.08417 2036 ft 171 kts 323°
2026-04-25 23:05 42.98749 -81.09408 1951 ft 148 kts 332°
2026-04-25 23:06 42.99532 -81.10249 1769 ft 142 kts 335°
2026-04-25 23:06 43.00313 -81.11074 1582 ft 148 kts 322°
2026-04-25 23:06 43.01105 -81.12129 1365 ft 165 kts 320°
2026-04-25 23:06 43.01951 -81.13243 1113 ft 169 kts 320°
2026-04-25 23:07 43.02720 -81.14201 912 ft 81 kts 320°
2026-04-25 23:07 43.02823 -81.14323 910 ft 0 kts 315°
2026-04-25 23:07 43.02827 -81.14327 910 ft 14 kts 315°
2026-04-25 23:08 43.03251 -81.14837 909 ft 137 kts 321°
2026-04-25 23:08 43.04163 -81.15765 1287 ft 183 kts 327°
2026-04-25 23:08 43.05197 -81.16897 2089 ft 194 kts 320°
2026-04-25 23:08 43.06189 -81.18219 2663 ft 215 kts 318°
2026-04-25 23:09 43.07289 -81.19732 2919 ft 235 kts 317°
2026-04-25 23:09 43.08434 -81.21326 2994 ft 237 kts 317°
2026-04-25 23:09 43.09590 -81.22938 3002 ft 230 kts 317°